DE2MSF Weather Reports


time (UTC)temp
F
wind
direction
speed
knots
gust
knots
rain 1hr
in
rain 24hr
in
rain mn
in
humidity
%
barometer
mb
20260502161510 74 196 4.3 13.0 0.00 0.00 0.00 50 1015.8
20260502151511 77 233 4.3 9.6 0.00 0.00 0.00 47 1016.3
20260502123010 76 251 5.2 13.9 0.00 0.00 0.00 48 1018.2
20260502121511 75 202 5.2 14.8 0.00 0.00 0.00 48 1018.1
20260502114510 75 247 3.5 9.6 0.00 0.00 0.00 47 1018.5
20260502113009 76 263 4.3 13.0 0.00 0.00 0.00 46 1018.7
20260502111510 73 259 3.5 9.6 0.00 0.00 0.00 47 1018.7
20260502110010 73 255 4.3 11.3 0.00 0.00 0.00 48 1018.8
20260502104511 74 238 4.3 12.2 0.00 0.00 0.00 48 1019.0
20260502101509 73 258 3.5 9.6 0.00 0.00 0.00 44 1019.0
20260502091509 71 222 5.2 12.2 0.00 0.00 0.00 44 1019.4
20260502070041 65 146 2.6 5.2 0.00 0.00 0.00 46 1019.3
20260502063041 62 206 3.5 7.8 0.00 0.00 0.00 49 1019.6
20260502061543 62 162 1.7 6.1 0.00 0.00 0.00 50 1019.7
20260502060041 61 147 1.7 6.1 0.00 0.00 0.00 51 1019.6
20260502054542 60 132 1.7 3.5 0.00 0.00 0.00 53 1019.8
20260502053042 58 148 0.9 3.5 0.00 0.00 0.00 55 1019.7
20260502051544 56 109 0.9 1.7 0.00 0.00 0.00 58 1019.7
20260502050041 55 91 0.9 1.7 0.00 0.00 0.00 60 1019.7
20260502043042 53 125 1.7 3.5 0.00 0.00 0.00 63 1019.8
20260502041542 53 105 0.9 3.5 0.00 0.00 0.00 63 1020.0
20260502034543 53 107 0.9 1.7 0.00 0.00 0.00 63 1020.2
20260502033041 53 131 0.9 1.7 0.00 0.00 0.00 62 1020.3
20260502031542 54 106 0.9 1.7 0.00 0.00 0.00 61 1020.2
20260502024544 54 125 0.9 3.5 0.00 0.00 0.00 59 1020.4
20260502023043 55 108 0.9 3.5 0.00 0.00 0.00 59 1020.4
20260502021542 55 114 0.9 3.5 0.00 0.00 0.00 58 1020.7
20260502020042 55 106 0.0 1.7 0.00 0.00 0.00 57 1020.7
20260502014544 56 115 0.9 1.7 0.00 0.00 0.00 56 1020.9
20260502013041 56 123 0.9 3.5 0.00 0.00 0.00 55 1021.0
20260502011543 57 123 1.7 3.5 0.00 0.00 0.00 53 1021.1
20260502010042 58 114 1.7 3.5 0.00 0.00 0.00 52 1021.3
20260502004541 58 126 2.6 5.2 0.00 0.00 0.00 51 1021.3
20260502003042 59 120 2.6 5.2 0.00 0.00 0.00 50 1021.5
20260502001542 59 131 2.6 6.1 0.00 0.00 0.00 49 1021.5
20260502000042 59 109 1.7 3.5 0.00 0.00 0.00 49 1021.8
20260501234543 59 125 1.7 6.1 0.00 0.00 0.00 49 1022.0
20260501233042 60 129 1.7 3.5 0.00 0.00 0.00 48 1021.9
20260501231541 60 120 2.6 3.5 0.00 0.00 0.00 47 1021.9
20260501230042 61 121 1.7 3.5 0.00 0.00 0.00 46 1022.1
20260501224541 61 121 1.7 3.5 0.00 0.00 0.00 46 1022.0
20260501223041 61 116 1.7 3.5 0.00 0.00 0.00 46 1022.1
20260501221541 62 124 1.7 3.5 0.00 0.00 0.00 44 1022.5
20260501220041 62 129 1.7 3.5 0.00 0.00 0.00 44 1022.2
20260501214542 63 113 1.7 3.5 0.00 0.00 0.00 43 1022.3
20260501213041 63 124 1.7 3.5 0.00 0.00 0.00 42 1022.1
20260501211542 64 117 1.7 3.5 0.00 0.00 0.00 41 1022.3
20260501210042 65 140 0.9 3.5 0.00 0.00 0.00 39 1022.4
20260501203041 65 150 0.9 3.5 0.00 0.00 0.00 39 1022.7
20260501201541 66 135 0.0 1.7 0.00 0.00 0.00 39 1022.6
20260501194541 68 150 0.9 3.5 0.00 0.00 0.00 37 1022.6
20260501193041 68 190 1.7 3.5 0.00 0.00 0.00 36 1022.6
20260501191541 69 177 1.7 5.2 0.00 0.00 0.00 34 1022.4
20260501190041 70 201 0.9 3.5 0.00 0.00 0.00 34 1022.6
20260501183041 73 192 2.6 5.2 0.00 0.00 0.00 31 1022.4
20260501181541 74 198 3.5 6.1 0.00 0.00 0.00 30 1022.2
20260501180041 74 171 3.5 7.8 0.00 0.00 0.00 30 1022.5
20260501170041 76 177 4.3 7.8 0.00 0.00 0.00 27 1022.3
20260501164543 76 188 4.3 9.6 0.00 0.00 0.00 27 1022.2